Flag for Romania Weather past 2 weeks in Sibiu, Romania

Now
59 °F

Passing clouds.


Feels Like: 57 °F
Forecast: 57 / 73 °F
Wind: 9 mph from Southwest

Location: Sibiu Airport

Current Time: Jun 30, 2015 at 11:47:39 PM

Latest Report: Jun 30, 2015 at 11:00 PM


Visibility: N/A

Pressure: 30.18 "Hg

Humidity: 94%

Dew point: 57 °F

Location of SibiuLocation

Historic Weather in Sibiu — Graph

°F

Sibiu temperature yesterday

Maximum temperature yesterday: 75 °F (at 7:00 PM)
Minimum temperature yesterday: 59 °F (at 2:00 AM)
Average temperature yesterday: 66 °F

Past Weeks' High & Low Weather Summary

 TemperatureHumidityPressure
High77 °F (Jun 16, 1:30 PM)100% (Jun 16, 5:30 AM)30.15 "Hg (Jun 16, 5:30 AM)
Low43 °F (Jun 22, 5:30 AM)31% (Jun 22, 5:30 PM)29.83 "Hg (Jun 19, 3:30 PM)
Average62 °F76%29.98 "Hg
* Reported Jun 15 10:00 PM — Jun 30 10:00 PM, Sibiu, Weather by CustomWeather, © 2015

Note: Actual official high and low records may vary slightly from our data, if they occured in-between our weather recording intervals... More about our weather records

Advertising

Sibiu weather history for previous 24 hours

 ConditionsComfort  
Time TempWeatherWind HumidityBarometerVisibility
10:00 PM
Tue, Jun 30
61 °FSprinkles. Scattered clouds.7 mph94%30.15 "HgN/A
7:30 PM72 °FScattered clouds.7 mph61%30.12 "HgN/A
7:00 PM72 °FScattered clouds.7 mph61%30.12 "HgN/A
6:00 PM72 °FScattered clouds.10 mph61%30.09 "HgN/A
5:30 PM75 °FScattered clouds.6 mph47%30.09 "HgN/A
5:00 PM73 °FScattered clouds.8 mph53%30.09 "HgN/A
4:00 PM70 °FScattered clouds.8 mph64%30.09 "HgN/A
3:30 PM68 °FScattered clouds.10 mph64%30.12 "HgN/A
3:00 PM68 °FScattered clouds.8 mph69%30.12 "HgN/A
2:30 PM68 °FScattered showers. Scattered clouds.12 mph64%30.12 "HgN/A
2:00 PM70 °FScattered clouds.14 mph64%30.09 "HgN/A
1:30 PM72 °FScattered clouds.5 mph57%30.09 "HgN/A
1:00 PM73 °FScattered clouds.6 mph53%30.12 "HgN/A
12:30 PM72 °FScattered clouds.5 mph57%30.12 "HgN/A
12:00 PM70 °FScattered clouds.3 mph60%30.12 "HgN/A
11:30 AM70 °FScattered clouds.6 mph57%30.12 "HgN/A
11:00 AM72 °FScattered clouds.3 mph61%30.12 "HgN/A
10:30 AM70 °FPassing clouds.3 mph60%30.12 "HgN/A
10:00 AM68 °FPassing clouds.6 mph64%30.12 "HgN/A
9:30 AM66 °FPassing clouds.6 mph68%30.12 "HgN/A
9:00 AM68 °FPassing clouds.5 mph69%30.12 "HgN/A
8:30 AM66 °FSunny.2 mph68%30.09 "Hg10 mi
8:00 AM64 °FSunny.3 mph73%30.09 "Hg10 mi
7:30 AM63 °FSunny.3 mph77%30.09 "Hg10 mi
7:00 AM63 °FPassing clouds.2 mph77%30.09 "HgN/A
6:00 AM59 °FPassing clouds.3 mph82%30.09 "HgN/A
5:00 AM61 °FPartly cloudy.10 mph72%30.09 "HgN/A
4:00 AM61 °FPassing clouds.12 mph72%30.09 "HgN/A
3:00 AM61 °FPassing clouds.8 mph83%30.09 "HgN/A
2:00 AM61 °FClear.8 mph77%30.09 "Hg10 mi
1:00 AM61 °FClear.7 mph77%30.09 "Hg10 mi
12:00 AM59 °FClear.1 mph82%30.09 "Hg10 mi
11:00 PM
Mon, Jun 29
59 °FClear.3 mph82%30.09 "Hg10 mi
Weather by CustomWeather, © 2015

See weather overviewHow to use our weather pages